Location: Martin Dies, Jr. State Park
(30.8429°N, 94.1720°W)
Time: 01:32:12
(UTC-06:00)

ISS - Pass Details

Date: 15 November 2019
Orbit: 411 x 421 km, 51.6° (Epoch: 14 December)

Event Time Altitude Azimuth Distance (km) Brightness Sun altitude
Exits shadow 04:58:33 45° 149° (SSE) 580 -2.9 -22.5°
Drops below altitude 10° 05:00:59 10° 140° (SE) 1,493 -0.3 -22.0°
Sets 05:03:04 0° 139° (SE) 2,352 0.8 -21.5°
